Location: Coupvray
(48.8929°N, 2.7967°E)
Time: 01:39:39
(UTC+00:00)

Cosmos 724 - Visible Passes

Search period start: 24 October 2020 00:00
Search period end: 03 November 2020 00:00
Orbit: 854 x 941 km, 65.6° (Epoch: 23 October)

Date Brightness Start Highest point End Pass type
(mag) Time Alt. Az. Time Alt. Az. Time Alt. Az.
24 Oct 6.9 01:32:14 15° NNE 01:32:14 15° NNE 01:33:15 10° NNE visible
24 Oct 6.1 03:15:13 19° NNW 03:15:13 19° NNW 03:19:13 10° NNE visible
24 Oct 6.4 04:59:26 10° NNW 05:03:17 17° N 05:07:11 10° NE visible
25 Oct 6.9 01:33:57 14° NNE 01:33:57 14° NNE 01:34:55 10° NNE visible
25 Oct 6.2 03:16:56 18° NNW 03:16:56 18° NNW 03:21:01 10° NNE visible
25 Oct 6.4 05:01:17 10° NNW 05:05:20 18° NNE 05:09:25 10° NE visible
26 Oct 6.9 01:35:39 14° NNE 01:35:39 14° NNE 01:36:34 10° NNE visible
26 Oct 6.3 03:18:38 17° NNW 03:18:59 17° N 03:22:52 10° NNE visible
26 Oct 6.3 05:03:04 10° NNW 05:07:22 19° NNE 05:11:40 10° ENE visible
27 Oct 6.9 01:37:22 14° NNE 01:37:22 14° NNE 01:38:15 10° NNE visible
27 Oct 6.3 03:20:21 16° NNW 03:21:02 16° N 03:24:48 10° NNE visible
27 Oct 6.3 05:04:50 10° NNW 05:09:21 21° NNE 05:13:57 10° ENE visible
28 Oct 7.0 01:39:04 13° NNE 01:39:04 13° NNE 01:39:56 10° NNE visible
28 Oct 6.4 03:22:03 16° NNW 03:23:06 16° N 03:26:48 10° NE visible
28 Oct 6.2 05:06:32 10° NNW 05:11:21 23° NNE 05:16:12 10° ENE visible
29 Oct 7.0 01:40:48 13° NNE 01:40:48 13° NNE 01:41:38 10° NNE visible
29 Oct 6.4 03:23:47 15° NNW 03:25:09 16° N 03:28:53 10° NE visible
29 Oct 6.1 05:08:13 10° NNW 05:13:18 26° NNE 05:18:26 10° E visible
30 Oct 7.0 01:42:32 13° NNE 01:42:32 13° NNE 01:43:22 10° NNE visible
30 Oct 6.4 03:25:31 15° NNW 03:27:13 17° N 03:31:02 10° NE visible
30 Oct 5.9 05:09:54 10° NNW 05:15:13 30° NNE 05:20:36 10° E visible
31 Oct 7.0 01:44:17 13° NNE 01:44:17 13° NNE 01:45:08 10° NNE visible
31 Oct 6.4 03:27:16 15° NNW 03:29:16 17° N 03:33:14 10° NE visible
31 Oct 5.7 05:11:34 10° NNW 05:17:07 35° NE 05:22:44 10° E visible
01 Nov 7.0 01:46:03 13° NNE 01:46:03 13° NNE 01:46:57 10° NNE visible
01 Nov 6.4 03:29:02 15° NNW 03:31:19 18° NNE 03:35:29 10° ENE visible
01 Nov 5.5 05:13:13 10° NNW 05:18:59 40° NE 05:24:48 10° ESE visible
02 Nov 7.0 01:47:52 13° NNE 01:47:52 13° NNE 01:48:50 10° NNE visible
02 Nov 6.4 03:30:51 16° NNW 03:33:20 20° NNE 03:37:45 10° ENE visible
02 Nov 5.3 05:14:52 10° NNW 05:20:48 48° NE 05:26:48 10° ESE visible
